[[{"header":{"parameterUnit":"m.s-1","parameterCategory":1,"la1":30.2991,"la2":30.254,"lo1":-89.0895,"lo2":-89.0444,"dy":0.0017,"dx":0.0017,"nx":28,"ny":28,"refTime":"2026-01-10T03:00:00:Z","depth":0,"parameterNumber":2,"parameterNumberName":"U-component_of_WINDS"},"data":[0,0,0,0,0,0,0,0,0,0,0,0,0,0,0,0,0,0,0,0,0,0,0,0,0,0,0,0,0,0,0,0,0,0,0,0,0,0,0,0,0,0,0,0,0,0,0,0,0,0,0,0,0,0,0,0,0,0,1.9799,1.9799,0,1.9817,1.9817,1.9817,1.9812,1.9811,1.9811,1.9811,1.9828,1.9829,1.9829,0,0,0,0,0,0,0,0,0,0,0,0,0,1.9761,1.9762,1.9799,1.9799,1.9799,1.9817,1.9817,1.9817,1.9812,1.9811,1.9811,1.981,1.9828,1.9828,1.9829,0,0,0,0,0,0,0,0,0,0,0,0,0,1.9778,1.9762,1.9799,1.9799,1.9799,1.9817,1.9817,1.9817,1.9812,1.9811,1.9811,1.981,1.9827,1.9828,1.983,1.9848,0,0,1.9833,1.9834,0,0,0,0,0,0,0,0,1.9777,1.9779,1.9799,1.9799,1.9799,1.9812,1.981,1.9828,1.9812,1.9807,1.9811,1.981,1.9823,1.9824,1.9829,1.9849,1.985,1.9833,1.9834,1.9835,1.9835,0,0,0,0,0,0,0,1.9776,1.9779,1.9806,1.9799,1.9799,1.9798,1.98,1.9813,1.9818,1.9807,1.9807,1.9809,1.9823,1.9828,1.9829,1.985,1.9833,1.9834,1.9835,1.9836,1.9888,1.9889,0,0,0,0,0,0,1.9775,1.9778,1.9805,1.9807,1.9786,1.9799,1.9801,1.9808,1.9818,1.9818,1.981,1.9809,1.9826,1.9828,1.983,1.9853,1.9835,1.9836,1.9836,1.9888,1.9889,1.9889,0,0,0,0,0,0,1.9774,1.9777,1.9805,1.9792,1.9795,1.9801,1.9808,1.9809,1.9814,1.9819,1.982,1.9814,1.9826,1.9828,1.9844,1.9854,1.9836,1.9837,1.9887,1.9888,1.9889,1.9899,0,0,0,0,0,0,1.9773,1.9777,1.9783,1.9792,1.9796,1.9818,1.9809,1.9809,1.9816,1.9815,1.9823,1.9824,1.9825,1.9842,1.9845,1.9855,1.9838,1.9886,1.9887,1.9889,1.9898,1.9901,1.9903,0,0,0,0,0,1.9771,1.9785,1.9784,1.9787,1.9805,1.9819,1.9821,1.9822,1.9817,1.9824,1.9828,1.9824,1.9852,1.9844,1.9847,1.9857,1.9885,1.9887,1.9888,1.9897,1.99,1.9903,0,0,0,0,0,0,1.9776,1.9786,1.9785,1.9802,1.981,1.9818,1.9827,1.9825,1.9835,1.9833,1.9834,1.9836,1.9853,1.9857,1.9848,1.9877,1.9868,1.987,1.9874,1.9876,1.9879,1.9877,1.9839,0,0,0,0,0,1.9779,1.979,1.9798,1.9813,1.9817,1.9821,1.9827,1.9828,1.9836,1.9839,1.9844,1.9852,1.9863,1.987,1.988,1.9899,1.9902,1.9908,1.991,1.9912,1.9914,1.9926,1.9929,1.9894,1.9894,1.9894,0,0,1.9786,1.9792,1.9799,1.9814,1.982,1.9832,1.9824,1.9836,1.9845,1.9841,1.9857,1.9861,1.987,1.9888,1.9896,1.9892,1.9924,1.9914,1.9916,1.9916,1.9928,1.9931,1.9934,1.9895,1.9895,1.9895,0,0,1.9803,1.9809,1.9822,1.9829,1.9839,1.9843,1.9846,1.9855,1.9859,1.9875,1.9873,1.9883,1.9902,1.9909,1.9915,1.9938,1.9935,1.9942,1.9953,1.9964,1.9967,1.997,1.9979,1.9982,1.9943,1.9943,1.9943,0,1.9809,1.9827,1.9829,1.9842,1.9849,1.9848,1.9862,1.9868,1.9881,1.9886,1.9881,1.9906,1.9912,1.9932,1.9938,1.9943,1.9947,1.994,1.9967,1.9969,1.9971,1.998,1.9983,1.9944,1.9944,1.9944,1.9944,0,1.9834,1.9847,1.9856,1.987,1.9878,1.9891,1.9897,1.9905,1.9906,1.991,1.9927,1.9935,1.9947,1.9952,1.9952,1.9973,1.9971,1.9966,1.9957,1.9975,1.9984,1.9987,1.9945,1.9945,1.9945,1.9945,0,0,1.9853,1.987,1.9873,1.988,1.9893,1.9902,1.9917,1.993,1.9937,1.9947,1.9959,1.9976,1.9973,1.998,1.9981,1.9991,2.0011,1.9986,1.9986,1.9991,2.0035,2.0038,2.0042,2.001,2.001,2.0011,2.0035,0,1.9871,1.9896,1.99,1.9922,1.9935,1.9935,1.9947,1.9957,1.9962,1.9973,1.9979,1.9991,1.9986,1.999,2.0,2.0006,2.002,2.0005,2.0021,2.0022,2.0018,2.0046,2.0048,2.0071,2.0038,2.0038,2.0039,0,1.9896,1.9907,1.9931,1.9944,1.9949,1.996,1.9974,1.9984,1.9996,1.9999,2.0008,2.0009,2.0024,2.0016,2.0038,2.0027,2.0035,2.0039,2.004,2.0041,2.0031,2.0048,2.0078,2.0081,2.0044,2.0043,2.0043,0,1.9907,1.9929,1.9946,1.9952,1.9967,1.9976,1.9982,1.9993,2.0002,2.0014,2.0019,2.0033,2.004,2.0051,2.0056,2.0049,2.0078,2.0069,2.0081,2.0081,2.0086,2.0085,2.0117,2.0091,2.0091,2.0091,2.0091,0,1.9927,1.9942,1.9952,1.9962,1.9979,1.9985,2.0001,2.0008,2.0018,2.003,2.0032,2.0043,2.0049,2.0062,2.0066,2.0084,2.0087,2.0091,2.0091,2.009,2.009,2.0094,2.0093,2.0092,2.0092,2.0092,2.0092,0,1.9942,1.995,1.9969,1.9983,1.9987,1.9998,2.001,2.0021,2.0027,2.0043,2.0047,2.0056,2.0072,2.0078,2.0097,2.01,2.012,2.012,2.0117,2.0117,2.0128,2.0127,2.0164,2.0169,2.014,2.014,2.0141,0,1.9954,1.9966,1.9981,1.999,1.9997,2.0011,2.0021,2.0027,2.0036,2.0052,2.0061,2.0077,2.0089,2.0114,2.0123,2.0137,2.0137,2.0149,2.0139,2.0138,2.0138,2.0137,2.0138,2.0151,2.0151,2.0151,2.0151,0,1.9975,1.9979,1.9992,2.0007,2.0018,2.003,2.0042,2.005,2.0058,2.0069,2.0085,2.0095,2.0115,2.0131,2.0147,2.0154,2.0155,2.0155,2.0158,2.0157,2.0155,2.0156,2.0121,2.0154,2.0153,2.0153,2.0153,2.0153,1.9988,1.9999,2.0013,2.0028,2.0038,2.005,2.0061,2.007,2.0084,2.0101,2.0104,2.0122,2.0135,2.0156,2.0165,2.0179,2.0176,2.0181,2.0182,2.0183,2.0184,2.0153,2.0182,2.0182,2.0182,2.0181,2.0181,0,2.0009,2.0019,2.0033,2.005,2.0063,2.0063,2.0077,2.0088,2.0103,2.0116,2.0129,2.0149,2.0165,2.0176,2.0192,2.0202,2.0202,2.0206,2.0205,2.0207,2.0185,2.0181,2.0205,2.0205,2.0205,2.0205,2.0205,2.0205,2.0021,2.004,2.0046,2.0071,2.008,2.0098,2.0106,2.0117,2.0127,2.0149,2.0163,2.0171,2.0183,2.0201,2.0216,2.0219,2.0225,2.0228,2.0231,2.0211,2.0208,2.0206,2.0201,2.023,2.023,2.0251,2.0251,2.0252]},{"header":{"parameterUnit":"m.s-1","parameterCategory":1,"la1":30.2991,"la2":30.254,"lo1":-89.0895,"lo2":-89.0444,"dy":0.0017,"dx":0.0017,"nx":28,"ny":28,"refTime":"2026-01-10T03:00:00:Z","depth":0,"parameterNumber":3,"parameterNumberName":"V-component_of_WINDS"},"data":[0,0,0,0,0,0,0,0,0,0,0,0,0,0,0,0,0,0,0,0,0,0,0,0,0,0,0,0,0,0,0,0,0,0,0,0,0,0,0,0,0,0,0,0,0,0,0,0,0,0,0,0,0,0,0,0,0,0,-7.2539,-7.2541,0,-7.2706,-7.2708,-7.271,-7.2683,-7.268,-7.2678,-7.2675,-7.284,-7.2847,-7.2854,0,0,0,0,0,0,0,0,0,0,0,0,0,-7.2194,-7.2201,-7.2539,-7.2541,-7.2543,-7.2706,-7.2708,-7.271,-7.2684,-7.268,-7.2677,-7.2674,-7.2838,-7.2846,-7.2855,0,0,0,0,0,0,0,0,0,0,0,0,0,-7.2351,-7.2203,-7.2539,-7.255,-7.2552,-7.2705,-7.2708,-7.2711,-7.2684,-7.268,-7.2676,-7.2672,-7.2835,-7.2846,-7.2856,-7.3007,0,0,-7.2889,-7.2893,0,0,0,0,0,0,0,0,-7.2342,-7.2363,-7.2546,-7.2549,-7.2552,-7.267,-7.2647,-7.281,-7.2686,-7.2634,-7.2675,-7.267,-7.2787,-7.2801,-7.2842,-7.3015,-7.3022,-7.2889,-7.2896,-7.29,-7.2903,0,0,0,0,0,0,0,-7.2331,-7.2356,-7.2605,-7.2548,-7.2553,-7.2545,-7.2563,-7.2678,-7.2732,-7.2638,-7.2637,-7.2657,-7.2788,-7.2831,-7.2845,-7.3025,-7.2889,-7.2899,-7.2905,-7.2909,-7.3334,-7.3339,0,0,0,0,0,0,-7.2318,-7.2347,-7.26,-7.261,-7.2435,-7.2555,-7.2575,-7.2636,-7.2731,-7.2741,-7.2661,-7.2655,-7.2815,-7.2833,-7.2851,-7.3037,-7.29,-7.291,-7.2916,-7.3329,-7.3335,-7.3341,0,0,0,0,0,0,-7.231,-7.234,-7.2593,-7.2478,-7.251,-7.2566,-7.2635,-7.2642,-7.2686,-7.2748,-7.2757,-7.2696,-7.2813,-7.2836,-7.297,-7.3042,-7.2915,-7.2925,-7.3324,-7.3331,-7.3338,-7.3408,0,0,0,0,0,0,-7.2301,-7.2338,-7.2396,-7.248,-7.2516,-7.271,-7.2639,-7.2648,-7.2705,-7.2699,-7.2783,-7.2793,-7.2811,-7.2954,-7.2981,-7.3054,-7.2933,-7.3317,-7.3327,-7.3336,-7.34,-7.3417,-7.3432,0,0,0,0,0,-7.2288,-7.2407,-7.2399,-7.243,-7.2591,-7.2714,-7.2735,-7.2755,-7.2711,-7.277,-7.281,-7.279,-7.303,-7.2968,-7.2997,-7.3076,-7.3313,-7.3324,-7.3335,-7.3392,-7.3414,-7.3432,0,0,0,0,0,0,-7.2327,-7.2418,-7.241,-7.256,-7.263,-7.2709,-7.2784,-7.2776,-7.2858,-7.285,-7.2869,-7.2889,-7.3025,-7.3063,-7.2993,-7.3229,-7.3165,-7.3183,-7.3199,-7.322,-7.3235,-7.3223,-7.2942,0,0,0,0,0,-7.2354,-7.2448,-7.2522,-7.2647,-7.2683,-7.2728,-7.2782,-7.2792,-7.2865,-7.2893,-7.2943,-7.3013,-7.3105,-7.3164,-7.3251,-7.3405,-7.3424,-7.3474,-7.349,-7.3503,-7.3518,-7.3605,-7.3629,-7.3377,-7.3377,-7.3377,0,0,-7.2409,-7.247,-7.2528,-7.2656,-7.2712,-7.2809,-7.2752,-7.2856,-7.2928,-7.2908,-7.3039,-7.3079,-7.3158,-7.3304,-7.337,-7.334,-7.3592,-7.3517,-7.3527,-7.3535,-7.3619,-7.3643,-7.3664,-7.3385,-7.3383,-7.3382,0,0,-7.2559,-7.2614,-7.2726,-7.2784,-7.287,-7.29,-7.2927,-7.3009,-7.3035,-7.3167,-7.3156,-7.3241,-7.3397,-7.3455,-7.3505,-7.3682,-7.3667,-7.3709,-7.3794,-7.3879,-7.3898,-7.3916,-7.3981,-7.4004,-7.3724,-7.3724,-7.3724,0,-7.2615,-7.2762,-7.2784,-7.2891,-7.2949,-7.2939,-7.3053,-7.3107,-7.3216,-7.3256,-7.3221,-7.342,-7.3472,-7.3632,-7.3676,-7.3716,-7.3748,-7.37,-7.3894,-7.3912,-7.3929,-7.3991,-7.4015,-7.3729,-7.3728,-7.3728,-7.3727,0,-7.2829,-7.2931,-7.3011,-7.312,-7.3187,-7.3296,-7.3335,-7.34,-7.3405,-7.3439,-7.3575,-7.3638,-7.374,-7.3778,-7.3782,-7.3941,-7.392,-7.389,-7.3826,-7.3957,-7.4016,-7.404,-7.3736,-7.3734,-7.3733,-7.3731,0,0,-7.3005,-7.3129,-7.3158,-7.3209,-7.3305,-7.3384,-7.3494,-7.3596,-7.3652,-7.3728,-7.3822,-7.3957,-7.3931,-7.3987,-7.3999,-7.4073,-7.4212,-7.4034,-7.4036,-7.4066,-7.4393,-7.4416,-7.4444,-7.4204,-7.4208,-7.4212,-7.4387,0,-7.3166,-7.3362,-7.3387,-7.3561,-7.3657,-7.3651,-7.3747,-7.3816,-7.3852,-7.3938,-7.3975,-7.4072,-7.4029,-7.4064,-7.4137,-7.418,-7.4278,-7.4167,-7.4291,-7.4295,-7.4272,-7.4474,-7.4498,-7.466,-7.441,-7.4414,-7.4417,0,-7.3378,-7.3465,-7.365,-7.3736,-7.3777,-7.3863,-7.3961,-7.4043,-7.4122,-7.4143,-7.4209,-7.4212,-7.4326,-7.4258,-7.4416,-7.434,-7.4392,-7.4421,-7.4428,-7.4441,-7.4364,-7.4493,-7.4712,-7.4737,-7.4453,-7.445,-7.4447,0,-7.3491,-7.3653,-7.3786,-7.3829,-7.3933,-7.3994,-7.404,-7.4115,-7.4176,-7.4261,-7.4301,-7.4397,-7.445,-7.4524,-7.4553,-7.4501,-7.471,-7.4644,-7.4731,-7.473,-7.4775,-7.4772,-7.5007,-7.4807,-7.4807,-7.4806,-7.4806,0,-7.3668,-7.3782,-7.3839,-7.392,-7.4048,-7.4076,-7.4202,-7.4244,-7.4312,-7.4402,-7.4401,-7.4485,-7.4518,-7.4608,-7.4631,-7.476,-7.4783,-7.4803,-7.4808,-7.4804,-7.4801,-7.4838,-7.4828,-7.4813,-7.4811,-7.481,-7.4809,0,-7.3815,-7.3858,-7.4002,-7.409,-7.4115,-7.4206,-7.4281,-7.436,-7.4396,-7.451,-7.4538,-7.4594,-7.4699,-7.4736,-7.4863,-7.4879,-7.5029,-7.5024,-7.5004,-7.5005,-7.509,-7.5082,-7.5357,-7.5396,-7.517,-7.5172,-7.5173,0,-7.3925,-7.4014,-7.4113,-7.4174,-7.4223,-7.4322,-7.4385,-7.4417,-7.4483,-7.4582,-7.465,-7.4756,-7.4842,-7.5011,-7.5062,-7.516,-7.5158,-7.5248,-7.5172,-7.5167,-7.5161,-7.5156,-7.5166,-7.5262,-7.5264,-7.5266,-7.5267,0,-7.4118,-7.4136,-7.4228,-7.433,-7.4407,-7.4488,-7.4566,-7.4616,-7.4659,-7.4734,-7.4844,-7.4911,-7.5044,-7.5149,-7.525,-7.5296,-7.529,-7.5291,-7.5317,-7.5314,-7.5299,-7.531,-7.5043,-7.5284,-7.5283,-7.5281,-7.5281,-7.528,-7.4251,-7.433,-7.4414,-7.4518,-7.4581,-7.4656,-7.4736,-7.4784,-7.4876,-7.4989,-7.5001,-7.512,-7.5199,-7.5335,-7.5387,-7.548,-7.5455,-7.5491,-7.55,-7.5509,-7.5517,-7.5284,-7.5498,-7.5497,-7.5497,-7.5497,-7.5496,0,-7.4445,-7.4499,-7.4595,-7.4707,-7.479,-7.4779,-7.4866,-7.4936,-7.5041,-7.5117,-7.5204,-7.5332,-7.5435,-7.5496,-7.56,-7.5663,-7.5663,-7.5689,-7.5685,-7.5696,-7.5532,-7.5501,-7.5688,-7.5688,-7.5688,-7.5687,-7.5687,-7.5687,-7.4555,-7.469,-7.4719,-7.4886,-7.4939,-7.5058,-7.5109,-7.5178,-7.5239,-7.5383,-7.547,-7.551,-7.5581,-7.569,-7.5785,-7.58,-7.5839,-7.5868,-7.5881,-7.5727,-7.5707,-7.5688,-7.5659,-7.5876,-7.5876,-7.6038,-7.6039,-7.604]}]]